Location: Leeds
(37.2390°N, 113.3580°W)
Time: 14:44:38
(UTC-06:00)

ISS - All Passes

Search period start: 23 May 2018 00:00
Search period end: 02 June 2018 00:00
Orbit: 402 x 407 km, 51.6° (Epoch: 24 May)

Date Brightness Start Highest point End Pass type
(mag) Time Alt. Az. Time Alt. Az. Time Alt. Az.
23 May - 03:34:38 10° NNW 03:37:29 27° NNE 03:40:19 10° E visible
23 May - 05:11:04 10° WNW 05:13:56 28° SW 05:16:46 10° SSE visible
23 May - 20:13:20 10° S 20:15:58 23° SE 20:18:37 10° ENE daylight
23 May - 21:49:21 10° W 21:52:19 32° NNW 21:55:19 10° NNE visible
24 May - 02:42:50 10° NNW 02:45:07 17° NNE 02:47:23 10° ENE visible
24 May - 04:18:37 10° NW 04:21:51 61° SW 04:25:03 10° SE visible
24 May - 19:22:54 10° SSE 19:23:58 11° SE 19:25:03 10° ESE daylight
24 May - 20:56:50 10° WSW 21:00:04 61° NW 21:03:19 10° NE daylight
24 May - 22:35:44 10° NW 22:37:06 12° NNW 22:38:28 10° N visible
25 May - 01:51:15 10° N 01:52:39 12° NNE 01:54:02 10° NE visible
25 May - 03:26:26 10° NW 03:29:40 63° NE 03:32:54 10° ESE night (unlit)
25 May - 05:04:51 10° WSW 05:05:45 11° SW 05:06:38 10° SW night (unlit)
25 May - 20:04:38 10° SW 20:07:52 63° SE 20:11:07 10° NE daylight
25 May - 21:42:22 10° WNW 21:44:37 17° NNW 21:46:53 10° NNE visible
26 May - 02:34:24 10° NNW 02:37:24 32° NNE 02:40:23 10° E visible
26 May - 04:11:09 10° WNW 04:13:44 22° SW 04:16:19 10° S night (unlit)
26 May - 19:12:53 10° SSW 19:15:46 29° SE 19:18:39 10° ENE daylight
26 May - 20:49:23 10° W 20:52:13 26° NNW 20:55:04 10° NNE daylight
27 May - 01:42:31 10° NNW 01:45:01 20° NNE 01:47:32 10° ENE visible
27 May - 03:18:31 10° WNW 03:21:40 45° SW 03:24:46 10° SSE night (unlit)
27 May - 18:21:49 10° SSE 18:23:42 15° SE 18:25:37 10° E daylight
27 May - 19:56:43 10° WSW 19:59:53 47° NW 20:03:04 10° NE daylight
27 May - 21:36:10 10° NNW 21:37:01 11° NNW 21:37:52 10° N visible
28 May - 00:50:47 10° N 00:52:33 14° NNE 00:54:19 10° NE visible
28 May - 02:26:13 10° NW 02:29:28 82° NE 02:32:43 10° SE night (unlit)
28 May - 19:04:22 10° SW 19:07:38 83° SE 19:10:55 10° NE daylight
28 May - 20:42:29 10° WNW 20:44:29 15° NNW 20:46:29 10° NNE daylight
29 May - 01:34:05 10° NW 01:37:11 40° NE 01:40:17 10° ESE visible
29 May - 03:11:13 10° W 03:13:26 17° SW 03:15:38 10° S night (unlit)
29 May - 18:12:23 10° SSW 18:15:26 38° SE 18:18:31 10° ENE daylight
29 May - 19:49:20 10° W 19:52:00 22° NNW 19:54:40 10° NNE daylight
30 May - 00:42:06 10° NNW 00:44:49 23° NNE 00:47:31 10° E visible
30 May - 02:18:20 10° WNW 02:21:20 34° SW 02:24:20 10° SSE night (unlit)
30 May - 17:20:58 10° S 17:23:20 19° SE 17:25:42 10° E daylight
30 May - 18:56:31 10° WSW 18:59:36 38° NW 19:02:42 10° NE daylight
30 May - 23:50:16 10° NNW 23:52:20 16° NNE 23:54:24 10° ENE visible
31 May - 01:25:53 10° NW 01:29:09 77° SW 01:32:23 10° SE visible
31 May - 18:04:01 10° SW 18:07:17 76° NW 18:10:34 10° NE daylight
31 May - 19:42:32 10° NW 19:44:14 13° NNW 19:45:54 10° N daylight
31 May - 22:58:44 10° N 22:59:46 11° NNE 23:00:47 10° NE visible
01 Jun - 00:33:40 10° NW 00:36:52 51° NE 00:40:02 10° ESE visible
01 Jun - 02:11:19 10° W 02:13:00 13° SW 02:14:40 10° SSW night (unlit)
01 Jun - 17:11:51 10° SSW 17:15:02 50° SE 17:18:13 10° ENE daylight
01 Jun - 18:49:13 10° WNW 18:51:41 19° NNW 18:54:09 10° NNE daylight
01 Jun - 23:41:35 10° NNW 23:44:28 28° NNE 23:47:20 10° E visible
